CTV454 WAHQ-WAMM

Flight info

Callsign CTV454
Flight time 2h 40m
Altitude 35000
Route PURWO DCT LASEM W52 MKS W32 LUANG
Aircraft A320/M-SDE3FGHIRWY/LB1

Departure

Time 2026-05-08 03:44
Airport Adisoemarmo International Airport (WAHQ)

Arrival

Time 2026-05-08 06:24
Airport Sam Ratulangi International Airport (WAMM)
Time Latitude Longitude Altitude Speed Heading
2026-05-08 02:13 -7.51432 110.74930 420 ft 0 kts 347°
2026-05-08 03:35 -7.51439 110.74931 420 ft 2 kts 347°
2026-05-08 03:35 -7.51454 110.74935 420 ft 2 kts 347°
2026-05-08 03:35 -7.51468 110.74938 420 ft 2 kts 347°
2026-05-08 03:36 -7.51483 110.74942 420 ft 2 kts 347°
2026-05-08 03:36 -7.51492 110.74944 420 ft 1 kts 343°
2026-05-08 03:36 -7.51500 110.74953 420 ft 2 kts 280°
2026-05-08 03:36 -7.51500 110.74960 420 ft 1 kts 249°
2026-05-08 03:37 -7.51498 110.74965 420 ft 0 kts 257°
2026-05-08 03:40 -7.51499 110.74965 420 ft 0 kts 257°
2026-05-08 03:40 -7.51505 110.74937 420 ft 7 kts 254°
2026-05-08 03:40 -7.51555 110.74910 421 ft 12 kts 172°
2026-05-08 03:40 -7.51661 110.74934 420 ft 17 kts 166°
2026-05-08 03:41 -7.51760 110.75008 418 ft 22 kts 93°
2026-05-08 03:41 -7.51731 110.75181 416 ft 28 kts 77°
2026-05-08 03:41 -7.51687 110.75404 410 ft 36 kts 84°
2026-05-08 03:41 -7.51622 110.75678 405 ft 44 kts 75°
2026-05-08 03:42 -7.51542 110.76013 398 ft 53 kts 77°
2026-05-08 03:42 -7.51461 110.76376 391 ft 52 kts 79°
2026-05-08 03:42 -7.51385 110.76711 390 ft 36 kts 79°
2026-05-08 03:42 -7.51325 110.76824 392 ft 5 kts 123°
2026-05-08 03:43 -7.51349 110.76831 392 ft 3 kts 200°
2026-05-08 03:43 -7.51363 110.76807 392 ft 4 kts 253°
2026-05-08 03:43 -7.51372 110.76763 391 ft 16 kts 258°
2026-05-08 03:43 -7.51442 110.76447 390 ft 74 kts 258°
2026-05-08 03:44 -7.51596 110.75766 403 ft 125 kts 257°
2026-05-08 03:44 -7.51816 110.74755 459 ft 166 kts 260°
2026-05-08 03:44 -7.52035 110.73566 934 ft 173 kts 260°
2026-05-08 03:44 -7.52140 110.72385 1537 ft 172 kts 282°
2026-05-08 03:45 -7.51552 110.71365 1859 ft 176 kts 323°
2026-05-08 03:45 -7.50553 110.70647 2226 ft 178 kts 329°
2026-05-08 03:45 -7.49403 110.70049 2364 ft 196 kts 347°
2026-05-08 03:45 -7.48001 110.70194 2468 ft 215 kts 22°
2026-05-08 03:46 -7.46578 110.70870 2544 ft 244 kts 30°
2026-05-08 03:46 -7.45012 110.71760 2824 ft 266 kts 28°
2026-05-08 03:46 -7.43385 110.72588 3679 ft 263 kts 26°
2026-05-08 03:46 -7.41741 110.73370 4404 ft 266 kts 25°
2026-05-08 03:47 -7.40062 110.74155 5105 ft 269 kts 25°
2026-05-08 03:47 -7.38315 110.74876 5812 ft 271 kts 15°
2026-05-08 03:47 -7.36449 110.75098 6502 ft 274 kts
2026-05-08 03:47 -7.34553 110.75106 7175 ft 277 kts
2026-05-08 03:48 -7.32652 110.75148 7837 ft 280 kts
2026-05-08 03:48 -7.30706 110.75183 8504 ft 282 kts
2026-05-08 03:48 -7.28727 110.75206 9163 ft 285 kts
2026-05-08 03:48 -7.26742 110.75229 9809 ft 288 kts
2026-05-08 03:49 -7.24727 110.75254 10231 ft 299 kts
2026-05-08 03:49 -7.22583 110.75284 10260 ft 324 kts
2026-05-08 03:49 -7.20298 110.75742 10303 ft 348 kts 26°
2026-05-08 03:49 -7.18396 110.77320 10410 ft 367 kts 53°
2026-05-08 03:50 -7.16990 110.79480 10814 ft 378 kts 57°
2026-05-08 03:50 -7.15519 110.81645 11606 ft 377 kts 55°
2026-05-08 03:50 -7.14014 110.83814 12231 ft 381 kts 56°
2026-05-08 03:50 -7.12529 110.86029 12844 ft 385 kts 56°
2026-05-08 03:51 -7.11031 110.88267 13466 ft 388 kts 56°
2026-05-08 03:51 -7.09514 110.90527 14067 ft 391 kts 56°
2026-05-08 03:51 -7.07995 110.92796 14652 ft 395 kts 56°
2026-05-08 03:51 -7.06439 110.95120 15235 ft 398 kts 56°
2026-05-08 03:52 -7.04897 110.97424 15793 ft 401 kts 56°
2026-05-08 03:52 -7.03337 110.99754 16342 ft 404 kts 56°
2026-05-08 03:52 -7.01757 111.02113 16880 ft 408 kts 56°
2026-05-08 03:52 -7.00179 111.04468 17401 ft 411 kts 56°
2026-05-08 03:53 -6.98585 111.06848 17911 ft 414 kts 56°
2026-05-08 03:53 -6.97010 111.09199 18400 ft 417 kts 56°
2026-05-08 03:53 -6.95392 111.11612 18886 ft 420 kts 56°
2026-05-08 03:53 -6.93765 111.14040 19361 ft 423 kts 56°
2026-05-08 03:54 -6.92116 111.16500 19827 ft 426 kts 56°
2026-05-08 03:54 -6.90443 111.18996 20284 ft 429 kts 56°
2026-05-08 03:54 -6.88783 111.21467 20723 ft 431 kts 56°
2026-05-08 03:54 -6.87091 111.23975 21155 ft 434 kts 56°
2026-05-08 03:55 -6.85386 111.26515 21579 ft 437 kts 56°
2026-05-08 03:55 -6.83705 111.29021 21984 ft 439 kts 56°
2026-05-08 03:55 -6.81982 111.31589 22385 ft 442 kts 56°
2026-05-08 03:55 -6.80257 111.34159 22775 ft 445 kts 56°
2026-05-08 03:56 -6.78530 111.36734 23153 ft 447 kts 56°
2026-05-08 03:56 -6.76774 111.39349 23525 ft 450 kts 56°
2026-05-08 03:56 -6.75036 111.41939 23881 ft 452 kts 56°
2026-05-08 03:56 -6.73283 111.44550 24229 ft 454 kts 56°
2026-05-08 03:57 -6.71499 111.47207 24572 ft 457 kts 56°
2026-05-08 03:57 -6.69709 111.49873 24905 ft 459 kts 56°
2026-05-08 03:57 -6.67942 111.52503 25223 ft 461 kts 56°
2026-05-08 03:57 -6.66120 111.55217 25541 ft 463 kts 56°
2026-05-08 03:58 -6.64333 111.57876 25843 ft 465 kts 56°
2026-05-08 03:58 -6.62556 111.60601 26144 ft 467 kts 60°
2026-05-08 03:58 -6.61219 111.63564 26509 ft 467 kts 71°
2026-05-08 03:58 -6.60160 111.66660 26931 ft 466 kts 71°
2026-05-08 03:59 -6.59074 111.69721 27333 ft 464 kts 71°
2026-05-08 03:59 -6.57998 111.72800 27700 ft 464 kts 71°
2026-05-08 03:59 -6.56952 111.75841 28054 ft 463 kts 71°
2026-05-08 03:59 -6.55901 111.78884 28407 ft 462 kts 71°
2026-05-08 04:00 -6.54843 111.81945 28749 ft 462 kts 71°
2026-05-08 04:00 -6.53804 111.84959 29074 ft 461 kts 71°
2026-05-08 04:00 -6.52759 111.87984 29392 ft 460 kts 71°
2026-05-08 04:00 -6.51698 111.91055 29705 ft 460 kts 71°
2026-05-08 04:01 -6.50658 111.94066 30003 ft 459 kts 71°
2026-05-08 04:01 -6.49606 111.97111 30294 ft 459 kts 71°
2026-05-08 04:01 -6.48565 112.00122 30574 ft 458 kts 71°
2026-05-08 04:01 -6.47527 112.03124 30844 ft 458 kts 71°
2026-05-08 04:02 -6.46486 112.06136 31106 ft 457 kts 71°
2026-05-08 04:02 -6.45436 112.09171 31362 ft 457 kts 71°
2026-05-08 04:02 -6.44402 112.12162 31606 ft 456 kts 71°
2026-05-08 04:02 -6.43360 112.15171 31844 ft 456 kts 71°
2026-05-08 04:03 -6.42320 112.18179 32073 ft 455 kts 71°
2026-05-08 04:03 -6.40242 112.24181 32509 ft 454 kts 71°
2026-05-08 04:03 -6.39215 112.27145 32714 ft 454 kts 71°
2026-05-08 04:04 -6.38182 112.30128 32913 ft 453 kts 71°
2026-05-08 04:04 -6.37144 112.33123 33106 ft 453 kts 71°
2026-05-08 04:04 -6.36113 112.36097 33291 ft 453 kts 71°
2026-05-08 04:04 -6.35073 112.39100 33471 ft 452 kts 71°
2026-05-08 04:05 -6.34049 112.42052 33642 ft 452 kts 71°
2026-05-08 04:05 -6.33019 112.45023 33808 ft 452 kts 71°
2026-05-08 04:05 -6.31979 112.48019 33970 ft 451 kts 71°
2026-05-08 04:05 -6.30956 112.50974 34123 ft 451 kts 71°
2026-05-08 04:06 -6.29930 112.53944 34272 ft 451 kts 71°
2026-05-08 04:06 -6.28911 112.56910 34416 ft 450 kts 73°
2026-05-08 04:06 -6.28158 112.59980 34540 ft 450 kts 80°
2026-05-08 04:06 -6.27614 112.63053 34663 ft 450 kts 80°
2026-05-08 04:07 -6.27039 112.66163 34806 ft 450 kts 80°
2026-05-08 04:07 -6.26490 112.69218 34931 ft 449 kts 81°
2026-05-08 04:07 -6.25419 112.75298 35005 ft 440 kts 81°
2026-05-08 04:08 -6.24347 112.81365 35004 ft 445 kts 81°
2026-05-08 04:08 -6.23255 112.87534 34998 ft 450 kts 81°
2026-05-08 04:09 -6.22163 112.93703 35002 ft 449 kts 81°
2026-05-08 04:09 -6.21071 112.99869 35000 ft 448 kts 81°
2026-05-08 04:10 -6.19980 113.06029 35001 ft 449 kts 81°
2026-05-08 04:10 -6.18885 113.12202 35001 ft 449 kts 81°
2026-05-08 04:11 -6.17792 113.18362 35000 ft 449 kts 81°
2026-05-08 04:11 -6.16698 113.24520 35001 ft 449 kts 81°
2026-05-08 04:12 -6.15597 113.30718 35000 ft 449 kts 81°
2026-05-08 04:12 -6.14506 113.36852 35001 ft 449 kts 81°
2026-05-08 04:13 -6.13423 113.42934 35001 ft 449 kts 81°
2026-05-08 04:13 -6.12326 113.49097 35000 ft 449 kts 81°
2026-05-08 04:14 -6.11230 113.55244 35001 ft 449 kts 81°
2026-05-08 04:14 -6.10134 113.61391 35001 ft 449 kts 81°
2026-05-08 04:15 -6.09035 113.67556 35000 ft 449 kts 80°
2026-05-08 04:15 -6.07938 113.73710 35001 ft 449 kts 80°
2026-05-08 04:16 -6.06832 113.79900 35000 ft 449 kts 80°
2026-05-08 04:16 -6.05731 113.86056 35001 ft 449 kts 80°
2026-05-08 04:17 -6.04629 113.92213 35000 ft 449 kts 80°
2026-05-08 04:17 -6.03526 113.98376 35001 ft 449 kts 80°
2026-05-08 04:18 -6.02430 114.04494 35001 ft 449 kts 80°
2026-05-08 04:18 -6.01323 114.10664 35001 ft 449 kts 80°
2026-05-08 04:19 -6.00218 114.16827 35001 ft 449 kts 80°
2026-05-08 04:19 -5.99109 114.23001 35000 ft 449 kts 80°
2026-05-08 04:20 -5.98004 114.29153 35001 ft 449 kts 80°
2026-05-08 04:20 -5.96894 114.35329 35001 ft 449 kts 80°
2026-05-08 04:21 -5.95781 114.41517 35000 ft 449 kts 80°
2026-05-08 04:21 -5.94677 114.47648 35001 ft 449 kts 80°
2026-05-08 04:22 -5.93565 114.53822 35001 ft 449 kts 80°
2026-05-08 04:22 -5.92456 114.59977 35001 ft 449 kts 80°
2026-05-08 04:23 -5.91345 114.66139 35001 ft 449 kts 80°
2026-05-08 04:23 -5.90242 114.72263 35001 ft 449 kts 80°
2026-05-08 04:24 -5.89117 114.78428 35001 ft 449 kts 80°
2026-05-08 04:24 -5.87996 114.84615 35000 ft 449 kts 80°
2026-05-08 04:25 -5.86883 114.90765 35001 ft 449 kts 80°
2026-05-08 04:25 -5.85765 114.96946 35000 ft 449 kts 80°
2026-05-08 04:26 -5.84649 115.03112 35001 ft 449 kts 80°
2026-05-08 04:26 -5.83655 115.09260 35000 ft 449 kts 83°
2026-05-08 04:27 -5.82783 115.15469 35001 ft 449 kts 82°
2026-05-08 04:27 -5.81911 115.21677 35000 ft 449 kts 83°
2026-05-08 04:28 -5.81036 115.27891 35001 ft 449 kts 83°
2026-05-08 04:28 -5.80169 115.34053 35000 ft 449 kts 83°
2026-05-08 04:29 -5.79294 115.40264 35001 ft 449 kts 83°
2026-05-08 04:29 -5.78420 115.46460 35000 ft 449 kts 83°
2026-05-08 04:30 -5.77547 115.52643 35001 ft 449 kts 83°
2026-05-08 04:30 -5.76683 115.58765 35001 ft 449 kts 83°
2026-05-08 04:31 -5.75805 115.64975 35001 ft 449 kts 83°
2026-05-08 04:31 -5.74930 115.71173 35000 ft 449 kts 82°
2026-05-08 04:32 -5.74059 115.77329 35001 ft 449 kts 82°
2026-05-08 04:32 -5.73182 115.83518 35000 ft 449 kts 82°
2026-05-08 04:33 -5.72298 115.89750 35001 ft 449 kts 82°
2026-05-08 04:33 -5.71425 115.95903 35000 ft 449 kts 82°
2026-05-08 04:34 -5.70543 116.02114 35001 ft 449 kts 82°
2026-05-08 04:34 -5.69662 116.08312 35000 ft 449 kts 82°
2026-05-08 04:35 -5.68785 116.14477 35001 ft 449 kts 82°
2026-05-08 04:35 -5.67904 116.20666 35000 ft 449 kts 82°
2026-05-08 04:36 -5.67023 116.26851 35001 ft 449 kts 82°
2026-05-08 04:36 -5.66138 116.33058 35000 ft 449 kts 82°
2026-05-08 04:37 -5.65259 116.39221 35001 ft 449 kts 82°
2026-05-08 04:37 -5.64369 116.45452 35000 ft 449 kts 82°
2026-05-08 04:38 -5.63487 116.51627 35001 ft 449 kts 82°
2026-05-08 04:38 -5.62426 116.57787 35001 ft 449 kts 79°
2026-05-08 04:39 -5.61199 116.63925 35000 ft 449 kts 79°
2026-05-08 04:39 -5.59985 116.70055 35001 ft 449 kts 79°
2026-05-08 04:40 -5.58763 116.76215 35000 ft 449 kts 79°
2026-05-08 04:40 -5.57549 116.82325 35001 ft 449 kts 79°
2026-05-08 04:41 -5.56325 116.88489 35001 ft 449 kts 79°
2026-05-08 04:41 -5.55112 116.94590 35001 ft 449 kts 79°
2026-05-08 04:42 -5.53890 117.00732 35001 ft 449 kts 79°
2026-05-08 04:42 -5.52670 117.06862 35001 ft 449 kts 79°
2026-05-08 04:43 -5.51461 117.13016 35001 ft 449 kts 79°
2026-05-08 04:43 -5.50255 117.19145 35000 ft 449 kts 79°
2026-05-08 04:44 -5.49055 117.25246 35001 ft 449 kts 79°
2026-05-08 04:44 -5.47844 117.31397 35001 ft 449 kts 79°
2026-05-08 04:45 -5.46636 117.37528 35001 ft 449 kts 79°
2026-05-08 04:45 -5.45432 117.43642 35001 ft 449 kts 79°
2026-05-08 04:46 -5.44224 117.49764 35000 ft 449 kts 79°
2026-05-08 04:46 -5.43009 117.55923 35001 ft 449 kts 79°
2026-05-08 04:47 -5.41805 117.62023 35000 ft 449 kts 79°
2026-05-08 04:47 -5.40594 117.68160 35001 ft 449 kts 79°
2026-05-08 04:48 -5.39379 117.74320 35000 ft 449 kts 79°
2026-05-08 04:48 -5.38193 117.80316 35001 ft 449 kts 79°
2026-05-08 04:49 -5.36977 117.86463 35000 ft 449 kts 79°
2026-05-08 04:49 -5.35760 117.92612 35001 ft 449 kts 79°
2026-05-08 04:50 -5.34552 117.98711 35000 ft 449 kts 79°
2026-05-08 04:50 -5.33339 118.04833 35001 ft 449 kts 79°
2026-05-08 04:51 -5.32125 118.10954 35000 ft 449 kts 79°
2026-05-08 04:51 -5.30908 118.17090 35001 ft 449 kts 79°
2026-05-08 04:52 -5.29692 118.23217 35000 ft 449 kts 79°
2026-05-08 04:52 -5.28477 118.29338 35001 ft 449 kts 79°
2026-05-08 04:53 -5.27252 118.35504 35001 ft 449 kts 79°
2026-05-08 04:53 -5.26040 118.41597 35001 ft 449 kts 79°
2026-05-08 04:54 -5.24816 118.47755 35001 ft 449 kts 79°
2026-05-08 04:54 -5.23596 118.53882 35000 ft 449 kts 79°
2026-05-08 04:55 -5.22379 118.59998 35001 ft 449 kts 79°
2026-05-08 04:55 -5.21156 118.66134 35000 ft 449 kts 79°
2026-05-08 04:56 -5.19939 118.72257 35001 ft 449 kts 79°
2026-05-08 04:56 -5.18713 118.78399 35000 ft 449 kts 79°
2026-05-08 04:57 -5.17496 118.84501 35001 ft 449 kts 79°
2026-05-08 04:57 -5.16270 118.90642 35000 ft 449 kts 79°
2026-05-08 04:58 -5.15048 118.96764 35001 ft 449 kts 79°
2026-05-08 04:58 -5.13819 119.02911 35000 ft 449 kts 79°
2026-05-08 04:59 -5.12589 119.09064 35001 ft 449 kts 79°
2026-05-08 04:59 -5.11371 119.15155 35001 ft 449 kts 79°
2026-05-08 05:00 -5.10139 119.21307 35001 ft 449 kts 79°
2026-05-08 05:00 -5.08918 119.27407 35001 ft 449 kts 79°
2026-05-08 05:01 -5.07693 119.33518 35000 ft 449 kts 79°
2026-05-08 05:01 -5.06461 119.39668 35001 ft 449 kts 79°
2026-05-08 05:02 -5.05232 119.45794 35001 ft 449 kts 79°
2026-05-08 05:02 -5.03653 119.51832 35002 ft 448 kts 65°
2026-05-08 05:03 -5.01989 119.54454 35003 ft 448 kts 49°
2026-05-08 05:03 -4.99669 119.56502 35009 ft 449 kts 35°
2026-05-08 05:03 -4.94672 119.60230 35001 ft 449 kts 40°
2026-05-08 05:04 -4.89841 119.64202 35000 ft 448 kts 40°
2026-05-08 05:04 -4.85042 119.68155 35001 ft 449 kts 40°
2026-05-08 05:05 -4.80212 119.72133 35000 ft 449 kts 40°
2026-05-08 05:05 -4.75398 119.76097 35001 ft 449 kts 40°
2026-05-08 05:06 -4.70588 119.80056 35000 ft 449 kts 40°
2026-05-08 05:06 -4.65765 119.84026 35001 ft 449 kts 40°
2026-05-08 05:07 -4.60954 119.87985 35000 ft 449 kts 40°
2026-05-08 05:07 -4.56135 119.91950 35001 ft 449 kts 40°
2026-05-08 05:08 -4.51313 119.95917 35001 ft 449 kts 40°
2026-05-08 05:08 -4.46500 119.99875 35001 ft 449 kts 40°
2026-05-08 05:09 -4.41784 120.03753 35001 ft 449 kts 40°
2026-05-08 05:09 -4.36936 120.07739 35000 ft 449 kts 40°
2026-05-08 05:10 -4.29710 120.13679 35001 ft 449 kts 40°
2026-05-08 05:11 -4.24923 120.17612 35001 ft 449 kts 40°
2026-05-08 05:11 -4.20088 120.21585 35001 ft 449 kts 40°
2026-05-08 05:12 -4.15266 120.25547 35001 ft 449 kts 40°
2026-05-08 05:12 -4.10435 120.29516 35001 ft 449 kts 40°
2026-05-08 05:13 -4.05620 120.33470 35001 ft 449 kts 40°
2026-05-08 05:13 -4.00830 120.37403 35000 ft 449 kts 40°
2026-05-08 05:14 -3.96020 120.41352 35001 ft 449 kts 40°
2026-05-08 05:14 -3.91171 120.45332 35000 ft 449 kts 40°
2026-05-08 05:15 -3.86371 120.49263 35001 ft 449 kts 40°
2026-05-08 05:15 -3.81521 120.53240 35000 ft 449 kts 40°
2026-05-08 05:16 -3.76727 120.57173 35001 ft 449 kts 40°
2026-05-08 05:16 -3.71925 120.61113 35000 ft 449 kts 40°
2026-05-08 05:17 -3.67084 120.65084 35001 ft 449 kts 40°
2026-05-08 05:17 -3.62286 120.69035 35001 ft 449 kts 40°
2026-05-08 05:18 -3.57454 120.72997 35001 ft 449 kts 40°
2026-05-08 05:18 -3.52656 120.76931 35001 ft 449 kts 40°
2026-05-08 05:19 -3.47849 120.80872 35000 ft 449 kts 40°
2026-05-08 05:19 -3.43035 120.84817 35001 ft 449 kts 40°
2026-05-08 05:20 -3.38213 120.88769 35000 ft 449 kts 40°
2026-05-08 05:20 -3.33388 120.92724 35001 ft 449 kts 40°
2026-05-08 05:21 -3.28578 120.96665 35000 ft 449 kts 40°
2026-05-08 05:21 -3.23768 121.00606 35001 ft 449 kts 40°
2026-05-08 05:22 -3.18934 121.04566 35000 ft 449 kts 40°
2026-05-08 05:22 -3.14132 121.08499 35001 ft 449 kts 40°
2026-05-08 05:23 -3.09315 121.12445 35000 ft 449 kts 40°
2026-05-08 05:23 -3.04493 121.16405 35001 ft 449 kts 40°
2026-05-08 05:24 -2.99669 121.20364 35001 ft 449 kts 40°
2026-05-08 05:24 -2.94861 121.24309 35001 ft 449 kts 40°
2026-05-08 05:25 -2.90030 121.28274 35001 ft 449 kts 40°
2026-05-08 05:25 -2.85210 121.32216 35000 ft 449 kts 40°
2026-05-08 05:26 -2.80419 121.36146 35001 ft 449 kts 40°
2026-05-08 05:26 -2.75609 121.40092 35001 ft 449 kts 40°
2026-05-08 05:27 -2.70759 121.44070 35000 ft 449 kts 40°
2026-05-08 05:27 -2.65946 121.48018 35001 ft 449 kts 40°
2026-05-08 05:28 -2.61128 121.51968 35000 ft 449 kts 40°
2026-05-08 05:28 -2.56324 121.55908 35001 ft 449 kts 40°
2026-05-08 05:29 -2.51515 121.59851 35000 ft 449 kts 40°
2026-05-08 05:29 -2.46687 121.63808 35001 ft 449 kts 40°
2026-05-08 05:30 -2.41953 121.67703 35000 ft 449 kts 40°
2026-05-08 05:30 -2.37240 121.71768 35001 ft 449 kts 41°
2026-05-08 05:31 -2.32529 121.75835 35001 ft 449 kts 41°
2026-05-08 05:31 -2.27816 121.79912 35001 ft 449 kts 41°
2026-05-08 05:32 -2.23091 121.83997 35001 ft 449 kts 41°
2026-05-08 05:32 -2.18376 121.88074 35001 ft 449 kts 41°
2026-05-08 05:33 -2.13675 121.92137 35001 ft 449 kts 41°
2026-05-08 05:33 -2.08955 121.96217 35001 ft 449 kts 41°
2026-05-08 05:34 -2.04240 122.00293 35001 ft 449 kts 41°
2026-05-08 05:34 -1.99524 122.04369 35000 ft 449 kts 41°
2026-05-08 05:35 -1.94808 122.08444 35001 ft 449 kts 41°
2026-05-08 05:35 -1.90106 122.12508 35001 ft 449 kts 41°
2026-05-08 05:36 -1.85392 122.16569 35001 ft 449 kts 41°
2026-05-08 05:36 -1.80667 122.20651 35000 ft 449 kts 41°
2026-05-08 05:37 -1.75957 122.24719 35001 ft 449 kts 41°
2026-05-08 05:37 -1.71255 122.28782 35001 ft 449 kts 41°
2026-05-08 05:38 -1.66509 122.32881 35000 ft 449 kts 41°
2026-05-08 05:38 -1.61801 122.36948 35001 ft 449 kts 41°
2026-05-08 05:39 -1.57075 122.41030 35000 ft 449 kts 41°
2026-05-08 05:39 -1.52392 122.45075 35001 ft 449 kts 41°
2026-05-08 05:40 -1.47647 122.49173 35000 ft 449 kts 41°
2026-05-08 05:40 -1.42943 122.53235 35001 ft 449 kts 41°
2026-05-08 05:41 -1.38252 122.57286 35000 ft 449 kts 41°
2026-05-08 05:41 -1.33523 122.61369 35001 ft 449 kts 41°
2026-05-08 05:42 -1.28801 122.65447 35000 ft 449 kts 41°
2026-05-08 05:42 -1.24097 122.69523 35001 ft 449 kts 41°
2026-05-08 05:43 -1.19388 122.73588 35000 ft 449 kts 41°
2026-05-08 05:43 -1.14694 122.77641 35001 ft 449 kts 41°
2026-05-08 05:44 -1.09975 122.81715 35000 ft 449 kts 41°
2026-05-08 05:44 -1.05257 122.85787 35001 ft 449 kts 41°
2026-05-08 05:45 -1.00564 122.89838 35001 ft 449 kts 41°
2026-05-08 05:45 -0.95817 122.93935 35001 ft 449 kts 41°
2026-05-08 05:46 -0.91120 122.97990 35001 ft 449 kts 41°
2026-05-08 05:46 -0.86416 123.02090 35000 ft 449 kts 42°
2026-05-08 05:47 -0.81750 123.06218 35001 ft 449 kts 42°
2026-05-08 05:47 -0.77092 123.10341 35001 ft 449 kts 42°
2026-05-08 05:48 -0.72448 123.14451 35000 ft 449 kts 42°
2026-05-08 05:48 -0.67767 123.18594 35001 ft 449 kts 42°
2026-05-08 05:49 -0.63116 123.22710 35000 ft 449 kts 42°
2026-05-08 05:49 -0.58458 123.26833 35001 ft 449 kts 42°
2026-05-08 05:50 -0.53886 123.30879 35000 ft 449 kts 42°
2026-05-08 05:50 -0.49204 123.35023 35001 ft 449 kts 42°
2026-05-08 05:51 -0.44554 123.39139 35000 ft 449 kts 42°
2026-05-08 05:51 -0.39872 123.43282 35001 ft 449 kts 42°
2026-05-08 05:52 -0.35300 123.47328 35001 ft 449 kts 42°
2026-05-08 05:52 -0.30643 123.51450 35001 ft 449 kts 42°
2026-05-08 05:53 -0.25684 123.55199 35002 ft 449 kts 33°
2026-05-08 05:53 -0.20508 123.58646 35000 ft 449 kts 34°
2026-05-08 05:54 -0.15313 123.62124 35001 ft 449 kts 34°
2026-05-08 05:54 -0.10153 123.65583 35000 ft 449 kts 34°
2026-05-08 05:55 -0.04967 123.69077 35001 ft 449 kts 34°
2026-05-08 05:55 0.00224 123.72555 35001 ft 449 kts 34°
2026-05-08 05:56 0.05321 123.76118 34926 ft 451 kts 36°
2026-05-08 05:56 0.07906 123.77872 34692 ft 452 kts 34°
2026-05-08 05:56 0.10526 123.79610 34445 ft 450 kts 34°
2026-05-08 05:56 0.13101 123.81332 34198 ft 448 kts 34°
2026-05-08 05:57 0.15284 123.82864 33989 ft 448 kts 40°
2026-05-08 05:57 0.17297 123.85233 33788 ft 448 kts 64°
2026-05-08 05:57 0.18121 123.88213 33672 ft 449 kts 89°
2026-05-08 05:57 0.17651 123.91056 33585 ft 451 kts 113°
2026-05-08 05:58 0.16009 123.93718 33490 ft 454 kts 128°
2026-05-08 05:58 0.14241 123.96352 33269 ft 456 kts 117°
2026-05-08 05:58 0.13185 123.99307 33021 ft 452 kts 101°
2026-05-08 05:58 0.13029 124.02432 32787 ft 450 kts 84°
2026-05-08 05:59 0.13791 124.05435 32566 ft 451 kts 67°
2026-05-08 05:59 0.15411 124.08106 32350 ft 453 kts 50°
2026-05-08 05:59 0.17734 124.10189 32132 ft 454 kts 33°
2026-05-08 05:59 0.20595 124.11522 31905 ft 451 kts 16°
2026-05-08 06:00 0.23662 124.11953 31678 ft 448 kts 359°
2026-05-08 06:00 0.26718 124.11546 31463 ft 446 kts 348°
2026-05-08 06:00 0.29762 124.10860 31230 ft 445 kts 348°
2026-05-08 06:00 0.32758 124.10229 30986 ft 444 kts 349°
2026-05-08 06:01 0.35802 124.09593 30735 ft 442 kts 349°
2026-05-08 06:01 0.38747 124.08974 30490 ft 440 kts 349°
2026-05-08 06:01 0.41715 124.08350 30243 ft 438 kts 349°
2026-05-08 06:01 0.44719 124.07720 29994 ft 436 kts 349°
2026-05-08 06:02 0.47650 124.07104 29750 ft 435 kts 349°
2026-05-08 06:02 0.50601 124.06485 29503 ft 433 kts 349°
2026-05-08 06:02 0.53538 124.05868 29256 ft 431 kts 349°
2026-05-08 06:02 0.56498 124.05319 29008 ft 430 kts 355°
2026-05-08 06:03 0.59431 124.05504 28799 ft 427 kts 14°
2026-05-08 06:03 0.62264 124.06312 28605 ft 427 kts 17°
2026-05-08 06:03 0.65135 124.07142 28362 ft 427 kts 16°
2026-05-08 06:03 0.67963 124.07961 28116 ft 425 kts 17°
2026-05-08 06:04 0.70791 124.08817 27866 ft 422 kts 17°
2026-05-08 06:04 0.73562 124.09656 27620 ft 420 kts 17°
2026-05-08 06:04 0.76353 124.10501 27374 ft 419 kts 17°
2026-05-08 06:04 0.79127 124.11342 27128 ft 417 kts 17°
2026-05-08 06:05 0.81892 124.12180 26882 ft 416 kts 17°
2026-05-08 06:05 0.84659 124.13020 26634 ft 414 kts 17°
2026-05-08 06:05 0.87404 124.13851 26387 ft 412 kts 17°
2026-05-08 06:05 0.90137 124.14693 26141 ft 411 kts 19°
2026-05-08 06:06 0.92849 124.15651 25894 ft 409 kts 20°
2026-05-08 06:06 0.95498 124.16610 25649 ft 408 kts 20°
2026-05-08 06:06 0.98151 124.17553 25403 ft 406 kts 20°
2026-05-08 06:06 1.00803 124.18504 25156 ft 405 kts 20°
2026-05-08 06:07 1.03438 124.19450 24888 ft 404 kts 20°
2026-05-08 06:07 1.06103 124.20407 24564 ft 402 kts 20°
2026-05-08 06:07 1.08696 124.21337 24196 ft 400 kts 20°
2026-05-08 06:07 1.11340 124.22285 23997 ft 411 kts 20°
2026-05-08 06:08 1.14074 124.23262 24016 ft 424 kts 20°
2026-05-08 06:08 1.16914 124.24278 24014 ft 438 kts 20°
2026-05-08 06:08 1.19814 124.25316 24011 ft 451 kts 20°
2026-05-08 06:08 1.22694 124.26344 24351 ft 431 kts 20°
2026-05-08 06:09 1.25522 124.27367 23752 ft 430 kts 20°
2026-05-08 06:09 1.28299 124.28361 23233 ft 427 kts 20°
2026-05-08 06:09 1.31067 124.29355 22703 ft 424 kts 20°
2026-05-08 06:09 1.33827 124.30347 22088 ft 416 kts 20°
2026-05-08 06:10 1.36538 124.31321 21187 ft 412 kts 20°
2026-05-08 06:10 1.39184 124.32270 20343 ft 407 kts 20°
2026-05-08 06:10 1.41824 124.33218 19471 ft 402 kts 20°
2026-05-08 06:10 1.44466 124.34165 18972 ft 407 kts 20°
2026-05-08 06:11 1.46978 124.35345 18802 ft 397 kts 34°
2026-05-08 06:11 1.49113 124.37066 18230 ft 395 kts 43°
2026-05-08 06:11 1.51148 124.38894 17717 ft 393 kts 41°
2026-05-08 06:11 1.53182 124.40661 17199 ft 387 kts 41°
2026-05-08 06:12 1.55168 124.42428 16393 ft 383 kts 42°
2026-05-08 06:12 1.57131 124.44186 15572 ft 378 kts 42°
2026-05-08 06:12 1.59106 124.45949 15004 ft 384 kts 42°
2026-05-08 06:12 1.61122 124.47753 15007 ft 396 kts 42°
2026-05-08 06:13 1.63166 124.49577 15351 ft 380 kts 42°
2026-05-08 06:13 1.65085 124.51305 14759 ft 377 kts 42°
2026-05-08 06:13 1.67033 124.53049 13935 ft 372 kts 42°
2026-05-08 06:13 1.68919 124.54737 13078 ft 369 kts 42°
2026-05-08 06:14 1.70802 124.56422 12467 ft 358 kts 42°
2026-05-08 06:14 1.72649 124.58080 11693 ft 354 kts 42°
2026-05-08 06:14 1.74458 124.59701 10958 ft 349 kts 42°
2026-05-08 06:14 1.76239 124.61295 10438 ft 337 kts 42°
2026-05-08 06:15 1.77928 124.62808 10143 ft 321 kts 42°
2026-05-08 06:15 1.79369 124.64208 9863 ft 308 kts 53°
2026-05-08 06:15 1.79692 124.64661 9760 ft 305 kts 60°
2026-05-08 06:15 1.80299 124.66631 9422 ft 300 kts 84°
2026-05-08 06:16 1.80428 124.68765 9090 ft 308 kts 86°
2026-05-08 06:16 1.80542 124.70894 8713 ft 304 kts 86°
2026-05-08 06:16 1.80603 124.72987 8351 ft 303 kts 88°
2026-05-08 06:16 1.80628 124.75083 7991 ft 298 kts 88°
2026-05-08 06:17 1.80661 124.79113 7289 ft 281 kts 88°
2026-05-08 06:17 1.80670 124.81021 6970 ft 273 kts 88°
2026-05-08 06:17 1.80677 124.82893 6653 ft 265 kts 88°
2026-05-08 06:18 1.80686 124.84716 6345 ft 258 kts 88°
2026-05-08 06:18 1.80692 124.86488 6055 ft 251 kts 88°
2026-05-08 06:18 1.80697 124.88191 5779 ft 244 kts 88°
2026-05-08 06:18 1.80703 124.89872 5508 ft 239 kts 88°
2026-05-08 06:19 1.80572 124.91526 5120 ft 242 kts 108°
2026-05-08 06:19 1.79578 124.92827 4887 ft 239 kts 153°
2026-05-08 06:19 1.78054 124.93158 4968 ft 223 kts 181°
2026-05-08 06:19 1.76502 124.93155 4658 ft 222 kts 180°
2026-05-08 06:20 1.74987 124.93176 4325 ft 221 kts 180°
2026-05-08 06:20 1.73429 124.93166 3987 ft 219 kts 181°
2026-05-08 06:20 1.71932 124.93128 3663 ft 218 kts 181°
2026-05-08 06:20 1.70426 124.93085 3350 ft 213 kts 184°
2026-05-08 06:21 1.68961 124.93034 3026 ft 209 kts 183°
2026-05-08 06:21 1.67521 124.92989 2716 ft 204 kts 183°
2026-05-08 06:21 1.66136 124.92949 2416 ft 194 kts 183°
2026-05-08 06:21 1.64840 124.92911 2139 ft 181 kts 182°
2026-05-08 06:22 1.63629 124.92869 1889 ft 167 kts 183°
2026-05-08 06:22 1.62518 124.92828 1669 ft 155 kts 182°
2026-05-08 06:22 1.61437 124.92796 1445 ft 158 kts 182°
2026-05-08 06:22 1.60330 124.92767 1214 ft 156 kts 181°
2026-05-08 06:23 1.59248 124.92739 981 ft 155 kts 182°
2026-05-08 06:23 1.58204 124.92712 772 ft 158 kts 183°
2026-05-08 06:23 1.57105 124.92682 549 ft 154 kts 181°
2026-05-08 06:23 1.56044 124.92654 323 ft 154 kts 183°
2026-05-08 06:24 1.55044 124.92627 290 ft 131 kts 179°
2026-05-08 06:24 1.54257 124.92606 292 ft 97 kts 177°
2026-05-08 06:24 1.53693 124.92570 284 ft 68 kts 194°
2026-05-08 06:24 1.53409 124.92361 274 ft 32 kts 255°
2026-05-08 06:25 1.53404 124.92272 275 ft 0 kts 276°